Flag for Finland Weather past 2 weeks in Jakobstad, Finland

Now
63 °F

Passing clouds.


Feels Like: 63 °F
Forecast: 58 / 66 °F
Wind: 5 mph from South

Location: Kruunupyy

Current Time: Aug 5, 2015 at 10:03:23 AM

Latest Report: Aug 5, 2015 at 9:20 AM


Visibility: N/A

Pressure: 30.15 "Hg

Humidity: 68%

Dew point: 52 °F

Location of JakobstadLocation

Historic Weather in Jakobstad — Graph

°F

Jakobstad temperature yesterday

Maximum temperature yesterday: 66 °F (at 1:20 PM)
Minimum temperature yesterday: 50 °F (at 11:20 PM)
Average temperature yesterday: 61 °F

Past Weeks' High & Low Weather Summary

 TemperatureHumidityPressure
High68 °F (Jul 30, 1:50 PM)100% (Jul 22, 4:20 AM)30.15 "Hg (Jul 22, 4:20 AM)
Low43 °F (Aug 5, 5:20 AM)43% (Jul 25, 6:20 PM)29.42 "Hg (Jul 30, 4:50 AM)
Average58 °F85%29.69 "Hg
* Reported Jul 21 8:20 AM — Aug 5 8:50 AM, Jakobstad, Weather by CustomWeather, © 2015

Note: Actual official high and low records may vary slightly from our data, if they occured in-between our weather recording intervals... More about our weather records

Advertising

Jakobstad weather history for previous 24 hours

 ConditionsComfort  
Time TempWeatherWind HumidityBarometerVisibility
8:50 AM
Wed, Aug 5
59 °FSunny.3 mph82%30.15 "Hg10 mi
8:20 AM57 °FSunny.3 mph82%30.15 "Hg10 mi
7:20 AM54 °FSunny.2 mph88%30.15 "Hg10 mi
6:50 AM50 °FSunny.1 mph94%30.15 "Hg10 mi
6:20 AM46 °FSunny.No wind93%30.15 "Hg10 mi
5:50 AM45 °FSunny.1 mph93%30.15 "Hg10 mi
5:20 AM43 °FClear.No wind93%30.15 "Hg10 mi
4:50 AM45 °FClear.No wind93%30.15 "Hg10 mi
4:20 AM45 °FClear.No wind93%30.15 "Hg10 mi
3:50 AM45 °FClear.No wind93%30.15 "Hg10 mi
3:20 AM46 °FClear.No wind87%30.15 "Hg10 mi
2:50 AM46 °FClear.No wind87%30.15 "Hg10 mi
2:20 AM48 °FClear.No wind94%30.15 "Hg10 mi
1:50 AM46 °FClear.No wind93%30.15 "Hg10 mi
1:20 AM48 °FClear.No wind94%30.15 "Hg10 mi
12:50 AM50 °FPassing clouds.No wind88%30.15 "HgN/A
12:20 AM48 °FFog.No wind94%30.15 "HgN/A
11:50 PM
Tue, Aug 4
50 °FFog.No wind88%30.12 "HgN/A
11:20 PM50 °FFog.No wind94%30.12 "HgN/A
10:50 PM52 °FSunny.No wind88%30.12 "Hg10 mi
10:20 PM55 °FSunny.1 mph82%30.12 "Hg10 mi
9:50 PM57 °FSunny.No wind72%30.12 "Hg10 mi
9:20 PM59 °FSunny.No wind68%30.12 "Hg10 mi
8:50 PM64 °FSunny.2 mph52%30.12 "Hg10 mi
8:20 PM64 °FSunny.2 mph49%30.12 "Hg10 mi
7:50 PM64 °FPassing clouds.6 mph49%30.12 "HgN/A
7:20 PM66 °FPassing clouds.6 mph49%30.12 "HgN/A
6:50 PM66 °FPassing clouds.8 mph52%30.12 "HgN/A
6:20 PM66 °FPassing clouds.7 mph52%30.12 "HgN/A
5:50 PM66 °FPassing clouds.8 mph52%30.12 "HgN/A
5:20 PM66 °FPassing clouds.7 mph52%30.12 "HgN/A
4:50 PM66 °FPassing clouds.9 mph52%30.12 "HgN/A
4:20 PM66 °FPassing clouds.9 mph52%30.12 "HgN/A
3:50 PM66 °FPassing clouds.9 mph56%30.12 "HgN/A
3:20 PM66 °FScattered clouds.10 mph49%30.12 "HgN/A
2:50 PM66 °FPassing clouds.8 mph60%30.09 "HgN/A
2:20 PM66 °FScattered clouds.9 mph60%30.09 "HgN/A
1:50 PM66 °FScattered clouds.8 mph64%30.09 "HgN/A
1:20 PM66 °FScattered clouds.8 mph64%30.09 "HgN/A
12:50 PM64 °FScattered clouds.9 mph68%30.09 "HgN/A
12:20 PM64 °FScattered clouds.7 mph68%30.09 "HgN/A
11:50 AM64 °FScattered clouds.8 mph68%30.09 "HgN/A
11:20 AM64 °FBroken clouds.9 mph68%30.09 "HgN/A
10:50 AM63 °FPartly sunny.8 mph77%30.09 "HgN/A
10:20 AM63 °FPartly sunny.6 mph77%30.09 "HgN/A
Weather by CustomWeather, © 2015

See weather overviewHow to use our weather pages